Other Public Products
Issued by NWS Grand Forks, ND

Home | Current Version | Previous Version | Graphics & Text | Print | Product List | Glossary On
Versions: 1 2 3 4 5 6 7 8 9 10 11 12 13 14 15 16 17 18 19 20 21 22 23 24 25 26 27 28 29 30 31 32 33 34 35 36 37 38 39 40 41 42 43 44 45 46 47 48 49 50
000
FPUS83 KFGF 252210
OPUFGF
PRAIRIE TO PINES WEATHER ROUNDUP
NATIONAL WEATHER SERVICE EASTERN NORTH DAKOTA/GRAND FORKS ND
500 PM CDT THU MAY 25 2017

 **SATELLITE DATA USED TO AUGMENT SKY COVER AT AUTOMATED STATIONS**
 *****  WEATHER ACROSS EASTERN NORTH DAKOTA  *****

CITY           SKY/WX    TMP DP  RH WIND       PRES   REMARKS
GRAND FORKS    CLOUDY    67  49  52 S21G28    29.48S
GRAND FORKS AF CLOUDY    65  48  53 S18       29.48R
GRAND CITY NWS NOT AVBL
BUXTON         NOT AVBL
DEVILS LAKE    FAIR      69  49  48 SE16      29.44S
FARGO          CLOUDY    68  49  50 SE22G29   29.50R
WAHPETON ARPT  CLOUDY    64  46  52 SE18G24   29.52R
$$

 *****  WEATHER ACROSS CENTRAL AND WESTERN NORTH DAKOTA  *****

CITY           SKY/WX    TMP DP  RH WIND       PRES   REMARKS
JAMESTOWN      FAIR      71  50  47 SW13      29.45S
BISMARCK       FAIR      76  40  27 W22G28    29.45R
MINOT          PTSUNNY   68  44  42 SW21G28   29.40R
MINOT AFB      FAIR      66  46  48 SW17      29.39R
GARRISON         N/A     68  42  38 W22G28    29.43R
WILLISTON      CLOUDY    61  42  49 W15       29.44R
DICKINSON      CLOUDY    60  40  47 W22G31    29.50R
HETTINGER      FAIR      65  40  39 W30G37    29.55R
$$

 *****  OTHER OBSERVATIONS NORTHEAST NORTH DAKOTA  *****

CITY           SKY/WX    TMP DP  RH WIND       PRES   REMARKS
WALHALLA       NOT AVBL
LANGDON        CLOUDY    66  50  55 S22G30    29.46S
CAVALIER       MOCLDY    64  46  52 SE13G22   29.46S
GRAFTON        MOCLDY    64  48  55 SE16G24   29.50R
CANDO          NOT AVBL
FORT TOTTEN      N/A     69  47  44 S12       29.95S
ROLLA          MOCLDY    66  48  52 S20       29.40F
RUGBY          NOT AVBL
 ***** THE ABOVE OBSERVATIONS ARE NON NWS ARE NOT QUALITY
        CONTROLLED AND MAY MIS-REPORT RAIN FOR SNOW...
$$

 *****  OTHER OBSERVATIONS SOUTHEAST NORTH DAKOTA *****

CITY           SKY/WX    TMP DP  RH WIND       PRES   REMARKS
COOPERSTOWN    MOCLDY    68  50  52 S17G24    29.47S
VALLEY CITY    CLOUDY    68  50  52 S17       29.48R
OAKES          NOT AVBL
GWINNER          N/A     70  50  49 MISG      29.48R
SHEYENNE NWR     N/A     69  51  51 S14       29.95S
BUFFALO        NOT AVBL
WYNDMERE         N/A     68  54  60 SE18        N/A
 ***** THE ABOVE OBSERVATIONS ARE NON NWS ARE NOT QUALITY
       CONTROLLED AND MAY MIS-REPORT RAIN FOR SNOW...
$$

  *****  WEATHER ACROSS NORTHERN MINNESOTA  *****

CITY           SKY/WX    TMP DP  RH WIND       PRES   REMARKS
FLAG ISLAND    FAIR      61  48  63 SE9       29.56F
WARROAD        FAIR      66  48  52 S15G22    29.57S
ROSEAU         FAIR      66  48  52 S18       29.55S
HALLOCK        CLOUDY    66  45  45 S22G32    29.50R
THF RVR FALLS  CLOUDY    65  45  48 SE18      29.55S
HALSTAD          N/A     67  48  51 S26         N/A
FOSSTON        CLOUDY    63  45  51 SE14G22   29.56S
BAUDETTE       CLOUDY    67  46  47 SE13      29.59R
WASKISH        PTSUNNY   66  48  52 SE12G20   29.60S
CROOKSTON      CLOUDY    66  46  48 S15       29.52S
$$
  *****  WEATHER ACROSS CENTRAL AND WEST MINNESOTA  *****

CITY           SKY/WX    TMP DP  RH WIND       PRES   REMARKS
BEMIDJI        PTSUNNY   65  47  52 SE14      29.59S
PARK RAPIDS    LGT RAIN  66  43  43 S16G23    29.59S
WADENA         CLOUDY    64  48  55 SE16      29.59S
DETROIT LAKES  CLOUDY    63  46  55 SE16      29.57R
MOORHEAD       PTSUNNY   66  48  52 SE22G31   29.52R
FERGUS FALLS   CLOUDY    66  48  52 S23       29.53R
ELBOW LAKE     DRIZZLE   62  52  69 E14G22    29.55R
MORRIS MN      PTSUNNY   66  52  59 SE17G23   29.54S
STAPLES        CLOUDY    64  45  48 SE10G20   29.61S
WHEATON        PTSUNNY   66  52  59 SE17G23   29.53R
$$
  *****  WEATHER ELSEWHERE ACROSS MINNESOTA  *****

CITY           SKY/WX    TMP DP  RH WIND       PRES   REMARKS
DULUTH         FAIR      64  47  53 E15       29.67S
INTRNTL FALLS  FAIR      68  44  42 SE13G18   29.62S
ELY            FAIR      64  43  45 SE10G17   29.68S
CLOQUET        FAIR      61  43  51 E10       29.68R
BRAINERD       CLOUDY    66  48  52 SE10      29.62F
HIBBING        PTSUNNY   66  44  45 S13G26    29.65S
ALEXANDRIA     CLOUDY    65  48  54 SE16G23   29.59S
SAINT CLOUD    FAIR      67  50  54 S8G18     29.62F
MINNEAPOLIS    FAIR      70  50  49 SE12G18   29.63F
$$

  *****  WEATHER ACROSS SOUTH DAKOTA  *****

CITY           SKY/WX    TMP DP  RH WIND       PRES   REMARKS
SIOUX FALLS    CLOUDY    69  55  60 S7        29.55R
BROOKINGS      LGT RAIN  62  52  69 S13       29.55R
WATERTOWN      CLOUDY    63  51  65 S14       29.50F
HURON          FAIR      64  56  75 SW6       29.50R
SISSETON         N/A     67  53  61 S15       29.48R
ABERDEEN       FAIR      71  49  45 S13       29.46R
MITCHELL       FAIR      69  55  60 S9        29.52S
PIERRE         FAIR      75  40  28 NW16      29.49R
MOBRIDGE       FAIR      76  37  24 NW10      29.45S
RAPID CITY     PTSUNNY   70  35  27 N9        29.58R
$$

  *****  SOME WEATHER IN NEARBY STATES *****

CITY           SKY/WX    TMP DP  RH WIND       PRES   REMARKS
GLASGOW MT     CLOUDY    56  43  61 W25G38    29.54R
GREAT FALLS MT CLOUDY    55  33  43 NW14      29.80R
CHEYENNE WY    RAIN      53  45  74 N6G17     29.70R
SCOTTSBLUFF NE LGT RAIN  69  47  45 W7        29.60F
OMAHA NE       FAIR      76  51  41 SE14      29.55S
DES MOINES IA  FAIR      74  48  39 SE15      29.62F
DAVENPORT IA   FAIR      73  51  46 CALM      29.68S
CHICAGO IL     PTSUNNY   66  52  60 NE10      29.66R
EAU CLAIRE WI  FAIR      72  50  45 SW8       29.65R
LA CROSSE WI   FAIR      74  55  51 SW9       29.65S
$$

  *****  SOME NATIONAL WEATHER *****

CITY           SKY/WX    TMP DP  RH WIND       PRES   REMARKS
LA GUARDIA NY  CLOUDY    57  56  96 NE15      29.55R FOG
RALEIGH NC     LGT RAIN  67  57  70 W10       29.59R
ATLANTA GA     FAIR      71  50  47 W13G20    29.81R
NEW ORLEANS LA FAIR      83  57  41 SW8       29.86S
OKLAHOMA CITY  PTSUNNY   86  59  39 S22G30    29.54F
ALBUQUERQUE NM PTSUNNY   86   3   4 W29G40    29.76F
SALT LAKE CITY FAIR      70  29  21 N15G22    29.73F
LOS ANGELES CA PTSUNNY   65  50  58 SW12      29.88S
BOISE ID       FAIR      65  31  28 NW12      29.73S
SEATTLE WA     FAIR      68  46  45 N10       29.87F
$$

*** WEATHER ACROSS MANITOBA...SASKATCHEWAN AND ONTARIO ***
                ***ONTARIO***

CITY           SKY/WX    TMP DP  RH WIND       PRES   REMARKS
GERALDTON      PTSUNNY   70  41  35 E9        29.73S
THUNDER BAY    MOSUNNY   66  43  42 E12       29.73F
SIOUX LOOKOUT  PTSUNNY   72  41  33 S6G21     29.64F
TORONTO        DRIZZLE   52  52 100 E15G23    29.50S
BIG TROUT LK   SUNNY     72  28  20 SE7       29.69
PICKLE LAKE    MOSUNNY   72  34  25 SE14G22   29.68F
DRYDEN         PTSUNNY   72  41  33 SE20      29.63F
KENORA         PTSUNNY   66  43  42 SE15G25   29.59F
$$
                *** MANITOBA***

CITY           SKY/WX    TMP DP  RH WIND       PRES   REMARKS
BRANDON        PTSUNNY   64  50  59 SE23G32   29.35F
DAUPHIN        PTSUNNY   63  50  63 SE17G26   29.33F
ISLAND LAKE    NOT AVBL
PILOT MOUND      N/A     64  50  59 S24G30      N/A
THE PAS        CLOUDY    52  48  87 SE16G23   29.40S
THOMPSON       CLOUDY    68  36  30 S10G21    29.52F
WINNIPEG       CLOUDY    64  45  48 SE17G28   29.49R
LYNN LAKE      LGT RAIN  52  50  93 SE7       29.54R
CHURCHILL      PTSUNNY   50  43  76 E13       29.66R
GILLAM         CLOUDY    75  25  15 S14G24    29.58S
$$
                ***SASKATCHEWAN***

CITY           SKY/WX    TMP DP  RH WIND       PRES   REMARKS
ESTEVAN        PTSUNNY   59  45  58 W21G30    29.36R
KINDERSLEY     LGT RAIN  46  41  81 NW39G49   29.53R
LLOYDMINSTER   CLOUDY    50  41  71 N21G31    29.59R
PRINCE ALBERT  LGT RAIN  52  46  82 N7        29.34R
REGINA         PTSUNNY   52  43  71 W21G29    29.33R
YORKTON        RAIN      55  48  76 S7        29.28R



USA.gov is the U.S. government's official web portal to all federal, state and local government web resources and services.